ESNV

Details ICAO ESNV (VHM)
Name VILHELMINA
Region Sweden
Timezone Europe/Stockholm (UTC+2.0)
Plans Departing 1
Arriving 9
Stats Elevation 1,140 ft / 347 m (AMSL)
Location 64.579082° 16.833575°
Runways 1
Magnetic Variation 6.590° E
Sunrise 2018-05-22 01:11:38 UTC / 2018-05-22 03:11:38 Local
Sunset 2018-05-22 20:29:52 UTC / 2018-05-22 22:29:52 Local
Advertisement - Login to hide

Runways

ID Width Length Bearing (true) Bearing (mag) Surface Threshold Offset Overrun Length
10 98 ft / 30 m 4,910 ft / 1,496 m 103.18° 96.59° Asphalt 0 ft / 0 m 0 ft / 0 m
28 98 ft / 30 m 4,910 ft / 1,496 m 283.20° 276.61° Asphalt 793 ft / 242 m 0 ft / 0 m

Approach Navaids

Runway Type Ident Frequency Range Bearing (true) Bearing (mag) Slope Elevation
28 Localiser INV 109.90 MHz 18 nm / 33 km 283.15° 276.56° - 1,140 ft / 347 m (AMSL)
28 Glidescope INV 109.90 MHz 10 nm / 19 km 283.19° 276.60° 3.00° 1,140 ft / 347 m (AMSL)
28 DME INV 109.90 MHz 18 nm / 33 km - - - 1,191 ft / 363 m (AMSL)

Map

Weather


0- 5 10 15 20 25 30 35+ Temperature / ° C

Clouds and Precipitation
Forecast for 2018-05-21 18:00 UTC. Updated 6 hours ago

Ground ~20,000 ft ~40,000 ft Winds

METAR

ESNV 212250Z AUTO 00000KT 9999 NCD 07/05 Q1022

TAF

Not found

Frequencies

Tower 122.55 MHz AFIS
Warning: Do not use this data for real-world aviation or navigation. No guarantee of current accuracy is given.